FW1655 Weather Reports


Display with metric or nautical units.
time (UTC)temp
F
wind
direction
speed
MPH
gust
MPH
rain 1hr
in
rain 24hr
in
rain mn
in
humidity
%
barometer
mb
20220813213001 71 204 0.0 5.0 0.00 0.00 0.00 70 991.1
20220813211506 72 126 0.0 4.0 0.00 0.00 0.00 70 991.0
20220813210100 72 156 0.0 2.0 0.00 0.00 0.00 71 990.8
20220813204649 72 106 0.0 3.0 0.00 0.00 0.00 71 990.9
20220813203143 72 203 1.0 6.0 0.00 0.00 0.00 71 990.9
20220813201601 73 113 1.0 5.0 0.00 0.00 0.00 68 990.8
20220813200109 74 85 0.0 7.0 0.00 0.00 0.00 66 991.1
20220813194632 75 40 0.0 7.0 0.00 0.00 0.00 62 990.8
20220813193101 74 173 0.0 1.0 0.00 0.00 0.00 59 990.8
20220813191555 75 63 0.0 0.0 0.00 0.00 0.00 61 991.0
20220813190102 75 132 0.0 4.0 0.00 0.00 0.00 61 991.0
20220813184600 74 146 0.0 4.0 0.00 0.00 0.00 63 991.0
20220813183054 73 204 1.0 7.0 0.00 0.00 0.00 65 991.2
20220813181608 73 152 0.0 5.0 0.00 0.00 0.00 66 991.3
20220813180110 73 138 1.0 8.0 0.00 0.00 0.00 64 991.3
20220813174552 76 183 1.0 7.0 0.00 0.00 0.00 60 991.4
20220813173049 76 80 0.0 2.0 0.00 0.00 0.00 56 991.3
20220813171629 77 41 0.0 1.0 0.00 0.00 0.00 53 991.7
20220813170048 78 277 0.0 1.0 0.00 0.00 0.00 53 991.7
20220813164603 78 68 0.0 4.0 0.00 0.00 0.00 53 991.7
20220813163047 76 51 0.0 2.0 0.00 0.00 0.00 56 991.8
20220813161558 75 84 0.0 1.0 0.00 0.00 0.00 56 991.9
20220813160044 76 10 0.0 1.0 0.00 0.00 0.00 56 992.0
20220813154549 74 134 0.0 4.0 0.00 0.00 0.00 58 992.0
20220813153136 75 328 0.0 3.0 0.00 0.00 0.00 58 992.1
20220813151537 73 121 0.0 3.0 0.00 0.00 0.00 61 992.2
20220813150035 73 328 0.0 3.0 0.00 0.00 0.00 63 992.4
20220813144544 73 105 0.0 1.0 0.00 0.00 0.00 63 992.4
20220813143030 71 328 0.0 2.0 0.00 0.00 0.00 67 992.4
20220813141543 70 266 0.0 1.0 0.00 0.00 0.00 69 992.3
20220813140027 69 43 0.0 2.0 0.00 0.00 0.00 70 992.3
20220813134528 68 27 0.0 2.0 0.00 0.00 0.00 72 992.4
20220813133034 67 18 0.0 3.0 0.00 0.00 0.00 74 992.3
20220813131523 65 22 0.0 1.0 0.00 0.00 0.00 77 992.3
20220813130013 64 27 0.0 1.0 0.00 0.00 0.00 79 992.4
20220813124524 63 60 0.0 2.0 0.00 0.00 0.00 79 992.4
20220813123014 63 117 0.0 1.0 0.00 0.00 0.00 81 992.4
20220813121514 62 347 0.0 0.0 0.00 0.00 0.00 82 992.3
20220813120009 62 8 0.0 0.0 0.00 0.00 0.00 83 992.2
20220813114509 61 331 0.0 1.0 0.00 0.00 0.00 83 992.1
20220813113019 61 27 0.0 0.0 0.00 0.00 0.00 84 991.9
20220813111507 61 354 0.0 0.0 0.00 0.00 0.00 84 992.0
20220813110008 60 354 0.0 0.0 0.00 0.00 0.00 85 992.1
20220813104502 0 0.0 0.0 0.00 0.00 0.00 992.0
20220813103058 0 0.0 0.0 0.00 0.00 0.00 991.8
20220813101616 0 0.0 0.0 0.00 0.00 0.00 991.6
20220813100050 0 0.0 0.0 0.00 0.00 0.00 991.9
20220813094546 0 0.0 0.0 0.00 0.00 0.00 992.0
20220813093045 0 0.0 0.0 0.00 0.00 0.00 991.6
20220813091539 0 0.0 0.0 0.00 0.00 0.00 991.4
20220813090038 0 0.0 0.0 0.00 0.00 0.00 991.6
20220813084528 0 0.0 0.0 0.00 0.00 0.00 991.5
20220813083050 0 0.0 0.0 0.00 0.00 0.00 991.7
20220813081527 0 0.0 0.0 0.00 0.00 0.00 991.6
20220813080019 0 0.0 0.0 0.00 0.00 0.00 991.4
20220813074511 0 0.0 0.0 0.00 0.00 0.00 991.4
20220813073009 0 0.0 0.0 0.00 0.00 0.00 991.2
20220813071505 62 329 0.0 2.0 0.00 0.00 0.00 77 991.4
20220813070001 63 320 0.0 2.0 0.00 0.00 0.00 77 991.0
20220813064611 63 12 0.0 1.0 0.00 0.00 0.00 76 990.8
20220813063058 63 352 0.0 1.0 0.00 0.00 0.00 76 991.3
20220813061620 63 56 0.0 0.0 0.00 0.00 0.00 76 991.7
20220813060125 63 84 0.0 1.0 0.00 0.00 0.00 75 991.4
20220813054607 64 303 0.0 1.0 0.00 0.00 0.00 74 991.6
20220813053133 64 356 0.0 1.0 0.00 0.00 0.00 73 991.4
20220813051550 64 348 0.0 1.0 0.00 0.00 0.00 73 991.8
20220813050056 64 338 0.0 2.0 0.00 0.00 0.00 72 991.7
20220813044548 65 13 0.0 1.0 0.00 0.00 0.00 71 991.8
20220813043046 65 331 0.0 1.0 0.00 0.00 0.00 71 991.6
20220813041545 65 316 0.0 1.0 0.00 0.00 0.00 70 991.5
20220813040044 65 352 0.0 0.0 0.00 0.00 0.00 70 991.6
20220813034541 66 335 0.0 0.0 0.00 0.00 0.00 69 991.3
20220813033041 66 20 0.0 0.0 0.00 0.00 0.00 68 991.3
20220813031541 66 301 0.0 1.0 0.00 0.00 0.00 68 991.3
20220813030116 66 325 0.0 1.0 0.00 0.00 0.00 67 991.5
20220813024539 67 324 0.0 0.0 0.00 0.00 0.00 67 991.5
20220813023039 67 22 0.0 0.0 0.00 0.00 0.00 66 991.2
20220813021537 67 342 0.0 0.0 0.00 0.00 0.00 66 991.1
20220813020042 68 324 0.0 0.0 0.00 0.00 0.00 65 991.2
20220813014535 68 338 0.0 0.0 0.00 0.00 0.00 65 991.0
20220813013045 68 337 0.0 0.0 0.00 0.00 0.00 64 991.0
20220813011605 69 355 0.0 0.0 0.00 0.00 0.00 63 990.9
20220813010035 69 352 0.0 0.0 0.00 0.00 0.00 62 990.9
20220813004531 69 326 0.0 0.0 0.00 0.00 0.00 61 990.7
20220813003035 70 293 0.0 0.0 0.00 0.00 0.00 60 990.4
20220813001547 71 311 0.0 1.0 0.00 0.00 0.00 59 990.3
20220813000041 71 332 0.0 2.0 0.00 0.00 0.00 58 990.3
20220812234530 72 5 0.0 1.0 0.00 0.00 0.00 58 990.1
20220812233025 73 26 0.0 1.0 0.00 0.00 0.00 56 990.1
20220812231531 74 329 0.0 2.0 0.00 0.00 0.00 55 989.9
20220812230023 75 16 0.0 4.0 0.00 0.00 0.00 54 989.6
20220812224521 76 32 0.0 2.0 0.00 0.00 0.00 53 989.7
20220812223022 77 10 0.0 2.0 0.00 0.00 0.00 52 989.2
20220812221533 77 19 0.0 2.0 0.00 0.00 0.00 51 989.0
20220812220018 78 153 0.0 2.0 0.00 0.00 0.00 51 988.9
20220812214532 78 306 0.0 3.0 0.00 0.00 0.00 50 988.9